This demonstration page uses our WeatherBlox Daily Observations layout. Learn more.

Left ArrowRight Arrow

39.92423, -83.80882

Hourly Observations for May 10, 2020

Temp ( °F °C ) Dew Point ( °F °C ) Humidity (%) Winds ( mph kmh ) Pressure ( in mb ) Visibility ( mi km ) Precip ( " mm )
12:56 am 00:56 Clear 40 4.4 27 -2.8 60 60 SW 7 11 30.22 1023 10 16.0934 0.55 13.97
1:56 am 01:56 Clear 41 5 27 -2.8 57 57 SSW 7 11 30.2 1023 10 16.0934 0 0
2:56 am 02:56 Clear 41 5 27 -2.8 57 57 SSW 9 15 30.17 1022 10 16.0934 0 0
3:56 am 03:56 Clear 41 5 28 -2.2 60 60 SSW 8 13 30.16 1021 10 16.0934 0 0
4:56 am 04:56 Mostly Cloudy 42 5.6 29 -1.7 60 60 SSW 8 13 30.15 1021 10 16.0934 0 0
5:56 am 05:56 Cloudy 43 6.1 27 -2.8 53 53 SSW 8 13 30.12 1020 10 16.0934 0 0
6:56 am 06:56 Cloudy 43 6.1 29 -1.7 58 58 SSW 8 13 30.13 1020 10 16.0934 0 0
7:56 am 07:56 Cloudy 44 6.7 30 -1.1 58 58 SSW 12 19 30.14 1021 10 16.0934 0 0
8:56 am 08:56 Mostly Cloudy 47 8.3 31 -0.6 54 54 SSW 8 13 30.13 1020 10 16.0934 0 0
9:56 am 09:56 Cloudy 50 10 31 -0.6 48 48 SSW 10 17 30.1 1019 10 16.0934 0 0
10:56 am 10:56 Cloudy 52 11.1 32 0 47 47 SW 17 28 30.09 1019 10 16.0934 0 0
11:56 am 11:56 Cloudy 55 12.8 35 1.7 47 47 SW 21 33 30.09 1019 10 16.0934 0 0
12:56 pm 12:56 Partly Cloudy 57 13.9 39 3.9 51 51 SSW 15 24 30.04 1017 10 16.0934 0.001 0.001
1:56 pm 13:56 Mostly Sunny 60 15.6 40 4.4 47 47 SSW 16 26 29.98 1015 10 16.0934 0 0
2:56 pm 14:56 Sunny 62 16.7 39 3.9 43 43 SSW 24 39 29.91 1013 10 16.0934 0.05 1.27
3:56 pm 15:56 Mostly Cloudy with Nearby Thunderstorms 60 15.6 38 3.3 44 44 SW 26 43 29.92 1013 10 16.0934 0 0
4:12 pm 16:12 Cloudy with Nearby Thunderstorms 48 9 46 8 94 94 W 28 44 30 1016 2.5 4.02335 0.02 0.508
4:20 pm 16:20 Cloudy with Nearby Thunderstorms 46 8 46 8 100 100 WSW 20 31 30 1016 5 8.0467 0.02 0.508
4:33 pm 16:33 Cloudy with Light Rain 48 9 46 8 94 94 WSW 10 17 29.97 1015 10 16.0934 0.08 2.032
4:56 pm 16:56 Cloudy with Light Rain 49 9.4 47 8.3 93 93 WSW 12 19 29.99 1016 10 16.0934 0.08 2.032
5:56 pm 17:56 Mostly Cloudy 53 11.7 49 9.4 86 86 SW 9 15 29.96 1015 10 16.0934 0.001 0.001
6:41 pm 18:41 Mostly Cloudy with Nearby Thunderstorms 54 12 48 9 82 82 WNW 14 22 29.95 1014 10 16.0934 0 0
6:56 pm 18:56 Cloudy 53 11.7 44 6.7 72 72 WNW 15 24 29.97 1015 10 16.0934 0 0
7:56 pm 19:56 Cloudy 50 10 39 3.9 66 66 W 21 33 29.99 1016 10 16.0934 0.01 0.254
8:56 pm 20:56 Cloudy with Light Rain 46 7.8 38 3.3 73 73 W 22 35 30.01 1016 10 16.0934 0.001 0.001
9:56 pm 21:56 Cloudy 45 7.2 38 3.3 77 77 W 17 28 30.01 1016 10 16.0934 1.4 35.56
10:56 pm 22:56 Cloudy with Light Rain 44 6.7 38 3.3 79 79 W 16 26 30.01 1016 10 16.0934 0.03 0.762
11:09 pm 23:09 Cloudy with Light Rain 45 7 37 3 76 76 W 17 28 30.01 1016 10 16.0934 0.06 1.524
11:56 pm 23:56 Cloudy 44 6.7 39 3.9 83 83 W 16 26 30 1016 10 16.0934 0.12 3.048

Powered by AerisWeather